Location: Vancouver
(49.2827°N, 123.1207°W)
Time: 00:17:28
(UTC-07:00)

ISS - Pass Details

Date: 25 June 2024
Orbit: 410 x 424 km, 51.6° (Epoch: 13 July)

Event Time Altitude Azimuth Distance (km) Brightness Sun altitude
Exits shadow 04:03:55 10° 200° (SSW) 1,465 -1.6 -8.2°
Maximum altitude 04:06:40 25° 143° (SE) 879 -2.3 -8.0°
Drops below altitude 10° 04:09:29 10° 86° (E) 1,496 -0.3 -7.7°
Sets 04:11:49 0° 73° (ENE) 2,367 1.1 -7.4°
